Location: ?????
(31.8092°N, 35.2590°E)
Time: 04:36:52
(UTC+00:00)

Lacrosse 5 - Pass Details

Date: 27 October 2021
Orbit: 714 x 724 km, 57.0° (Epoch: 28 August)

Event Time Altitude Azimuth Distance (km) Brightness Sun altitude
Rises 16:22:06 0° 206° (SSW) 3,119 5.6 -19.3°
Reaches altitude 10° 16:24:30 10° 203° (SSW) 2,203 4.7 -19.8°
Maximum altitude 16:29:28 58° 124° (SE) 838 1.9 -20.9°
Enters shadow 16:30:29 48° 79° (E) 936 2.0 -21.1°
